Time,TemperatureF,DewpointF,PressureIn,WindDirection,WindDirectionDegrees,WindSpeedMPH,WindSpeedGustMPH,Humidity,HourlyPrecipIn,Conditions,Clouds,dailyrainin,SoftwareType,DateUTC
2013-07-09 00:02:00,71.3,53.3,29.89,SE,146,0.0,1.0,53,0.00,,CLR,0.00,VWS V14.01,2013-07-09 07:02:00,
2013-07-09 00:07:00,71.2,53.2,29.89,SSW,197,1.0,3.0,53,0.00,,CLR,0.00,VWS V14.01,2013-07-09 07:07:00,
2013-07-09 00:12:00,71.2,53.2,29.89,SW,217,0.0,3.0,53,0.00,,CLR,0.00,VWS V14.01,2013-07-09 07:12:00,
2013-07-09 00:17:00,71.4,53.4,29.89,NW,304,0.0,3.0,53,0.00,,CLR,0.00,VWS V14.01,2013-07-09 07:17:00,
2013-07-09 00:22:00,71.4,53.4,29.89,South,188,0.0,3.0,53,0.00,,CLR,0.00,VWS V14.01,2013-07-09 07:22:00,
2013-07-09 00:27:00,71.3,53.3,29.89,SE,142,0.0,3.0,53,0.00,,CLR,0.00,VWS V14.01,2013-07-09 07:27:00,
2013-07-09 00:32:00,71.1,53.1,29.89,SSE,159,0.0,1.0,53,0.00,,CLR,0.00,VWS V14.01,2013-07-09 07:32:00,
2013-07-09 00:37:00,70.6,53.2,29.89,SSE,165,3.0,3.0,54,0.00,,CLR,0.00,VWS V14.01,2013-07-09 07:37:00,
2013-07-09 00:42:00,69.9,53.5,29.89,SSE,166,0.0,3.0,56,0.00,,CLR,0.00,VWS V14.01,2013-07-09 07:42:00,
2013-07-09 00:47:00,69.4,53.5,29.90,SSE,165,0.0,3.0,57,0.00,,CLR,0.00,VWS V14.01,2013-07-09 07:47:00,
2013-07-09 00:52:00,68.8,53.0,29.90,SSE,165,0.0,3.0,57,0.00,,CLR,0.00,VWS V14.01,2013-07-09 07:52:00,
2013-07-09 00:57:00,68.4,53.5,29.90,SSE,165,0.0,3.0,59,0.00,,CLR,0.00,VWS V14.01,2013-07-09 07:57:00,
2013-07-09 01:02:00,68.1,53.2,29.89,SSE,158,0.0,1.0,59,0.00,,CLR,0.00,VWS V14.01,2013-07-09 08:02:00,
2013-07-09 01:07:00,68.0,53.6,29.90,SSE,158,0.0,1.0,60,0.00,,CLR,0.00,VWS V14.01,2013-07-09 08:07:00,
2013-07-09 01:12:00,67.8,53.4,29.90,SSE,155,0.0,1.0,60,0.00,,CLR,0.00,VWS V14.01,2013-07-09 08:12:00,
2013-07-09 01:17:00,67.5,53.6,29.90,SSE,158,0.0,1.0,61,0.00,,CLR,0.00,VWS V14.01,2013-07-09 08:17:00,
2013-07-09 01:22:00,67.7,53.3,29.89,West,274,0.0,1.0,60,0.00,,CLR,0.00,VWS V14.01,2013-07-09 08:22:00,
2013-07-09 01:28:00,67.7,53.3,29.89,West,274,0.0,1.0,60,0.00,,CLR,0.00,VWS V14.01,2013-07-09 08:28:00,
2013-07-09 01:33:00,67.5,53.6,29.90,NW,326,1.0,1.0,61,0.00,,CLR,0.00,VWS V14.01,2013-07-09 08:33:00,
2013-07-09 01:38:00,67.4,53.5,29.90,North,353,0.0,1.0,61,0.00,,CLR,0.00,VWS V14.01,2013-07-09 08:38:00,
2013-07-09 01:43:00,67.1,53.7,29.89,North,353,0.0,1.0,62,0.00,,CLR,0.00,VWS V14.01,2013-07-09 08:43:00,
2013-07-09 01:48:00,67.1,53.7,29.89,WSW,238,0.0,1.0,62,0.00,,CLR,0.00,VWS V14.01,2013-07-09 08:48:00,
2013-07-09 01:53:00,66.9,53.5,29.90,WSW,238,0.0,1.0,62,0.00,,CLR,0.00,VWS V14.01,2013-07-09 08:53:00,
2013-07-09 01:58:00,66.7,53.3,29.90,WSW,238,0.0,1.0,62,0.00,,CLR,0.00,VWS V14.01,2013-07-09 08:58:00,
2013-07-09 02:03:00,66.5,52.7,29.89,WSW,238,0.0,0.0,61,0.00,,CLR,0.00,VWS V14.01,2013-07-09 09:03:00,
2013-07-09 02:08:00,66.3,52.9,29.90,WSW,238,0.0,0.0,62,0.00,,CLR,0.00,VWS V14.01,2013-07-09 09:08:00,
2013-07-09 02:13:00,65.9,52.5,29.90,WSW,239,0.0,0.0,62,0.00,,CLR,0.00,VWS V14.01,2013-07-09 09:13:00,
2013-07-09 02:18:00,65.8,52.9,29.90,WSW,239,0.0,0.0,63,0.00,,CLR,0.00,VWS V14.01,2013-07-09 09:18:00,
2013-07-09 02:23:00,65.4,52.9,29.90,WSW,239,0.0,0.0,64,0.00,,CLR,0.00,VWS V14.01,2013-07-09 09:23:00,
2013-07-09 02:28:00,65.1,52.6,29.90,WSW,239,0.0,1.0,64,0.00,,CLR,0.00,VWS V14.01,2013-07-09 09:28:00,
2013-07-09 02:33:00,64.8,52.8,29.90,WSW,239,0.0,0.0,65,0.00,,CLR,0.00,VWS V14.01,2013-07-09 09:33:00,
2013-07-09 02:38:00,64.7,52.7,29.90,WSW,239,0.0,0.0,65,0.00,,CLR,0.00,VWS V14.01,2013-07-09 09:38:00,
2013-07-09 02:43:00,64.8,52.8,29.90,WSW,239,0.0,0.0,65,0.00,,CLR,0.00,VWS V14.01,2013-07-09 09:43:00,
2013-07-09 02:48:00,64.6,53.0,29.90,WSW,239,0.0,0.0,66,0.00,,CLR,0.00,VWS V14.01,2013-07-09 09:48:00,
2013-07-09 02:53:00,64.4,52.8,29.90,WSW,239,0.0,0.0,66,0.00,,CLR,0.00,VWS V14.01,2013-07-09 09:53:00,
2013-07-09 02:58:00,64.2,52.6,29.90,WSW,239,0.0,0.0,66,0.00,,CLR,0.00,VWS V14.01,2013-07-09 09:58:00,
2013-07-09 03:03:00,64.1,52.5,29.90,WSW,239,0.0,0.0,66,0.00,,CLR,0.00,VWS V14.01,2013-07-09 10:03:00,
2013-07-09 03:08:00,64.2,53.0,29.89,WSW,239,0.0,1.0,67,0.00,,CLR,0.00,VWS V14.01,2013-07-09 10:08:00,
2013-07-09 03:13:00,64.1,52.9,29.89,WSW,239,0.0,1.0,67,0.00,,CLR,0.00,VWS V14.01,2013-07-09 10:13:00,
2013-07-09 03:18:00,63.9,52.7,29.89,WSW,239,0.0,1.0,67,0.00,,CLR,0.00,VWS V14.01,2013-07-09 10:18:00,
2013-07-09 03:23:00,63.7,52.5,29.89,WSW,239,0.0,1.0,67,0.00,,CLR,0.00,VWS V14.01,2013-07-09 10:23:00,
2013-07-09 03:28:00,63.4,52.7,29.90,WSW,239,0.0,1.0,68,0.00,,CLR,0.00,VWS V14.01,2013-07-09 10:28:00,
2013-07-09 03:33:00,63.4,52.7,29.89,WSW,239,0.0,0.0,68,0.00,,CLR,0.00,VWS V14.01,2013-07-09 10:33:00,
2013-07-09 03:38:00,63.3,52.6,29.90,WSW,239,0.0,0.0,68,0.00,,CLR,0.00,VWS V14.01,2013-07-09 10:38:00,
2013-07-09 03:43:00,63.3,52.6,29.90,WSW,239,0.0,1.0,68,0.00,,CLR,0.00,VWS V14.01,2013-07-09 10:43:00,
2013-07-09 03:48:00,63.1,52.4,29.90,WSW,239,0.0,1.0,68,0.00,,CLR,0.00,VWS V14.01,2013-07-09 10:48:00,
2013-07-09 03:53:00,62.9,52.2,29.90,WSW,239,0.0,1.0,68,0.00,,CLR,0.00,VWS V14.01,2013-07-09 10:53:00,
2013-07-09 03:58:00,62.5,52.2,29.90,WSW,239,0.0,1.0,69,0.00,,CLR,0.00,VWS V14.01,2013-07-09 10:58:00,
2013-07-09 04:03:00,62.4,52.5,29.90,WSW,239,0.0,0.0,70,0.00,,CLR,0.00,VWS V14.01,2013-07-09 11:03:00,
2013-07-09 04:08:00,62.3,52.4,29.90,WSW,239,0.0,0.0,70,0.00,,CLR,0.00,VWS V14.01,2013-07-09 11:08:00,
2013-07-09 04:13:00,62.4,52.5,29.90,WSW,239,0.0,0.0,70,0.00,,CLR,0.00,VWS V14.01,2013-07-09 11:13:00,
2013-07-09 04:18:00,62.2,52.3,29.90,WSW,239,0.0,0.0,70,0.00,,CLR,0.00,VWS V14.01,2013-07-09 11:18:00,
2013-07-09 04:23:00,62.0,52.5,29.90,WSW,239,0.0,0.0,71,0.00,,CLR,0.00,VWS V14.01,2013-07-09 11:23:00,
2013-07-09 04:28:00,62.2,52.7,29.90,WSW,239,0.0,0.0,71,0.00,,CLR,0.00,VWS V14.01,2013-07-09 11:28:00,
2013-07-09 04:33:00,62.3,52.4,29.90,WSW,239,0.0,1.0,70,0.00,,CLR,0.00,VWS V14.01,2013-07-09 11:33:00,
2013-07-09 04:38:00,62.3,52.8,29.90,WSW,239,0.0,1.0,71,0.00,,CLR,0.00,VWS V14.01,2013-07-09 11:38:00,
2013-07-09 04:43:00,62.1,52.6,29.91,WSW,239,0.0,1.0,71,0.00,,CLR,0.00,VWS V14.01,2013-07-09 11:43:00,
2013-07-09 04:48:00,62.0,52.5,29.91,WSW,239,0.0,1.0,71,0.00,,CLR,0.00,VWS V14.01,2013-07-09 11:48:00,
2013-07-09 04:53:00,61.9,52.4,29.91,North,351,0.0,1.0,71,0.00,,CLR,0.00,VWS V14.01,2013-07-09 11:53:00,
2013-07-09 04:58:00,61.8,52.3,29.91,North,352,0.0,1.0,71,0.00,,CLR,0.00,VWS V14.01,2013-07-09 11:58:00,
2013-07-09 05:03:00,61.6,51.7,29.91,NNW,342,0.0,1.0,70,0.00,,CLR,0.00,VWS V14.01,2013-07-09 12:03:00,
2013-07-09 05:08:00,61.6,52.1,29.91,NNW,340,0.0,1.0,71,0.00,,CLR,0.00,VWS V14.01,2013-07-09 12:08:00,
2013-07-09 05:13:00,61.5,51.6,29.91,NNW,347,0.0,1.0,70,0.00,,CLR,0.00,VWS V14.01,2013-07-09 12:13:00,
2013-07-09 05:18:00,61.4,51.9,29.92,NNW,347,0.0,1.0,71,0.00,,CLR,0.00,VWS V14.01,2013-07-09 12:18:00,
2013-07-09 05:23:00,61.1,51.6,29.92,North,356,0.0,1.0,71,0.00,,CLR,0.00,VWS V14.01,2013-07-09 12:23:00,
2013-07-09 05:28:00,60.9,51.5,29.92,North,355,0.0,1.0,71,0.00,,CLR,0.00,VWS V14.01,2013-07-09 12:28:00,
2013-07-09 05:33:00,60.6,51.5,29.92,North,355,0.0,0.0,72,0.00,,CLR,0.00,VWS V14.01,2013-07-09 12:33:00,
2013-07-09 05:38:00,60.4,51.7,29.92,North,355,0.0,0.0,73,0.00,,CLR,0.00,VWS V14.01,2013-07-09 12:38:00,
2013-07-09 05:43:00,60.3,51.6,29.93,North,356,0.0,0.0,73,0.00,,CLR,0.00,VWS V14.01,2013-07-09 12:43:00,
2013-07-09 05:48:00,60.3,52.0,29.93,North,354,0.0,1.0,74,0.00,,CLR,0.00,VWS V14.01,2013-07-09 12:48:00,
2013-07-09 05:53:00,60.2,51.9,29.93,North,354,0.0,1.0,74,0.00,,CLR,0.00,VWS V14.01,2013-07-09 12:53:00,
2013-07-09 05:58:00,60.2,52.3,29.93,North,354,0.0,1.0,75,0.00,,CLR,0.00,VWS V14.01,2013-07-09 12:58:00,
2013-07-09 06:03:00,60.4,52.5,29.94,North,354,0.0,0.0,75,0.00,,CLR,0.00,VWS V14.01,2013-07-09 13:03:00,
2013-07-09 06:08:00,60.3,52.7,29.94,North,354,0.0,0.0,76,0.00,,CLR,0.00,VWS V14.01,2013-07-09 13:08:00,
2013-07-09 06:13:00,60.5,52.5,29.94,North,354,0.0,1.0,75,0.00,,CLR,0.00,VWS V14.01,2013-07-09 13:13:00,
2013-07-09 06:18:00,60.5,52.5,29.94,North,354,0.0,1.0,75,0.00,,CLR,0.00,VWS V14.01,2013-07-09 13:18:00,
2013-07-09 06:23:00,60.5,52.9,29.94,North,354,0.0,1.0,76,0.00,,CLR,0.00,VWS V14.01,2013-07-09 13:23:00,
2013-07-09 06:28:00,60.5,52.9,29.94,North,354,0.0,1.0,76,0.00,,CLR,0.00,VWS V14.01,2013-07-09 13:28:00,
2013-07-09 06:33:00,60.4,53.2,29.94,North,354,0.0,0.0,77,0.00,,CLR,0.00,VWS V14.01,2013-07-09 13:33:00,
2013-07-09 06:38:00,60.7,53.5,29.95,North,354,0.0,0.0,77,0.00,,CLR,0.00,VWS V14.01,2013-07-09 13:38:00,
2013-07-09 06:43:00,61.2,53.2,29.95,North,354,0.0,0.0,75,0.00,,CLR,0.00,VWS V14.01,2013-07-09 13:43:00,
2013-07-09 06:49:00,61.5,52.8,29.95,North,354,0.0,0.0,73,0.00,,CLR,0.00,VWS V14.01,2013-07-09 13:49:00,
2013-07-09 06:54:00,61.7,52.6,29.95,North,354,0.0,0.0,72,0.00,,CLR,0.00,VWS V14.01,2013-07-09 13:54:00,
2013-07-09 06:59:00,62.0,53.3,29.95,North,354,0.0,0.0,73,0.00,,CLR,0.00,VWS V14.01,2013-07-09 13:59:00,
2013-07-09 07:04:00,62.5,53.4,29.95,North,354,0.0,0.0,72,0.00,,CLR,0.00,VWS V14.01,2013-07-09 14:04:00,
2013-07-09 07:09:00,62.9,53.8,29.95,North,354,0.0,0.0,72,0.00,,CLR,0.00,VWS V14.01,2013-07-09 14:09:00,
2013-07-09 07:14:00,63.6,54.0,29.96,North,354,0.0,0.0,71,0.00,,CLR,0.00,VWS V14.01,2013-07-09 14:14:00,
2013-07-09 07:19:00,64.4,54.0,29.96,North,354,0.0,0.0,69,0.00,,CLR,0.00,VWS V14.01,2013-07-09 14:19:00,
2013-07-09 07:24:00,65.6,53.1,29.96,ESE,117,0.0,1.0,64,0.00,,CLR,0.00,VWS V14.01,2013-07-09 14:24:00,
2013-07-09 07:29:00,67.3,53.8,29.96,ESE,115,0.0,1.0,62,0.00,,CLR,0.00,VWS V14.01,2013-07-09 14:29:00,
2013-07-09 07:34:00,68.5,53.6,29.96,ESE,117,0.0,1.0,59,0.00,,CLR,0.00,VWS V14.01,2013-07-09 14:34:00,
2013-07-09 07:39:00,69.8,53.9,29.96,ESE,117,0.0,1.0,57,0.00,,CLR,0.00,VWS V14.01,2013-07-09 14:39:00,
2013-07-09 07:44:00,71.5,53.5,29.96,ESE,118,0.0,1.0,53,0.00,,CLR,0.00,VWS V14.01,2013-07-09 14:44:00,
2013-07-09 07:49:00,72.1,53.0,29.97,ESE,116,0.0,1.0,51,0.00,,CLR,0.00,VWS V14.01,2013-07-09 14:49:00,
2013-07-09 07:54:00,72.5,52.3,29.97,East,88,1.0,2.0,49,0.00,,CLR,0.00,VWS V14.01,2013-07-09 14:54:00,
2013-07-09 07:59:00,72.5,52.8,29.97,ESE,103,0.0,2.0,50,0.00,,CLR,0.00,VWS V14.01,2013-07-09 14:59:00,
2013-07-09 08:04:00,72.9,52.6,29.97,SE,145,0.0,1.0,49,0.00,,CLR,0.00,VWS V14.01,2013-07-09 15:04:00,
2013-07-09 08:09:00,73.4,53.1,29.97,SE,142,0.0,3.0,49,0.00,,CLR,0.00,VWS V14.01,2013-07-09 15:09:00,
2013-07-09 08:14:00,73.3,53.0,29.97,ESE,115,0.0,3.0,49,0.00,,CLR,0.00,VWS V14.01,2013-07-09 15:14:00,
2013-07-09 08:19:00,74.1,53.7,29.97,SSE,157,0.0,3.0,49,0.00,,CLR,0.00,VWS V14.01,2013-07-09 15:19:00,
2013-07-09 08:24:00,74.5,53.0,29.97,ESE,110,0.0,3.0,47,0.00,,CLR,0.00,VWS V14.01,2013-07-09 15:24:00,
2013-07-09 08:29:00,75.2,53.0,29.97,ESE,103,0.0,3.0,46,0.00,,CLR,0.00,VWS V14.01,2013-07-09 15:29:00,
2013-07-09 08:34:00,75.5,52.7,29.98,ESE,104,1.0,3.0,45,0.00,,CLR,0.00,VWS V14.01,2013-07-09 15:34:00,
2013-07-09 08:39:00,75.7,53.5,29.97,ESE,110,0.0,3.0,46,0.00,,CLR,0.00,VWS V14.01,2013-07-09 15:39:00,
2013-07-09 08:44:00,76.3,52.8,29.97,SSE,155,1.0,3.0,44,0.00,,CLR,0.00,VWS V14.01,2013-07-09 15:44:00,
2013-07-09 08:49:00,76.2,53.3,29.98,ESE,120,0.0,4.0,45,0.00,,CLR,0.00,VWS V14.01,2013-07-09 15:49:00,
2013-07-09 08:54:00,76.7,53.8,29.98,East,86,1.0,4.0,45,0.00,,CLR,0.00,VWS V14.01,2013-07-09 15:54:00,
2013-07-09 08:59:00,77.0,54.1,29.98,East,101,1.0,4.0,45,0.00,,CLR,0.00,VWS V14.01,2013-07-09 15:59:00,
2013-07-09 09:04:00,77.4,54.4,29.98,ESE,123,2.0,3.0,45,0.00,,CLR,0.00,VWS V14.01,2013-07-09 16:04:00,
2013-07-09 09:09:00,77.9,54.9,29.98,SSE,152,0.0,3.0,45,0.00,,CLR,0.00,VWS V14.01,2013-07-09 16:09:00,
2013-07-09 09:14:00,78.5,54.2,29.98,ESE,115,0.0,3.0,43,0.00,,CLR,0.00,VWS V14.01,2013-07-09 16:14:00,
2013-07-09 09:19:00,78.5,53.5,29.98,SE,134,0.0,3.0,42,0.00,,CLR,0.00,VWS V14.01,2013-07-09 16:19:00,
2013-07-09 09:24:00,79.3,54.2,29.98,NNE,13,0.0,3.0,42,0.00,,CLR,0.00,VWS V14.01,2013-07-09 16:24:00,
2013-07-09 09:29:00,79.7,54.6,29.98,East,97,2.0,3.0,42,0.00,,CLR,0.00,VWS V14.01,2013-07-09 16:29:00,
2013-07-09 09:34:00,79.8,54.0,29.98,South,177,1.0,1.0,41,0.00,,CLR,0.00,VWS V14.01,2013-07-09 16:34:00,
2013-07-09 09:39:00,80.8,55.6,29.98,SE,138,1.0,1.0,42,0.00,,CLR,0.00,VWS V14.01,2013-07-09 16:39:00,
2013-07-09 09:44:00,80.7,54.2,29.98,ESE,122,0.0,3.0,40,0.00,,CLR,0.00,VWS V14.01,2013-07-09 16:44:00,
2013-07-09 09:49:00,81.1,55.2,29.98,SSE,148,1.0,3.0,41,0.00,,CLR,0.00,VWS V14.01,2013-07-09 16:49:00,
2013-07-09 09:54:00,81.6,55.0,29.98,ESE,116,0.0,3.0,40,0.00,,CLR,0.00,VWS V14.01,2013-07-09 16:54:00,
2013-07-09 09:59:00,82.2,56.8,29.98,NE,41,0.0,3.0,42,0.00,,CLR,0.00,VWS V14.01,2013-07-09 16:59:00,
2013-07-09 10:04:00,82.4,52.8,29.98,ENE,77,0.0,3.0,36,0.00,,CLR,0.00,VWS V14.01,2013-07-09 17:04:00,
2013-07-09 10:09:00,82.6,53.7,29.98,ESE,117,2.0,3.0,37,0.00,,CLR,0.00,VWS V14.01,2013-07-09 17:09:00,
2013-07-09 10:14:00,82.7,54.5,29.98,ESE,110,1.0,3.0,38,0.00,,CLR,0.00,VWS V14.01,2013-07-09 17:14:00,
2013-07-09 10:19:00,82.6,54.5,29.98,SSE,162,2.0,4.0,38,0.00,,CLR,0.00,VWS V14.01,2013-07-09 17:19:00,
2013-07-09 10:24:00,83.2,55.0,29.98,SSE,150,0.0,4.0,38,0.00,,CLR,0.00,VWS V14.01,2013-07-09 17:24:00,
2013-07-09 10:29:00,84.2,55.1,29.98,East,93,0.0,4.0,37,0.00,,CLR,0.00,VWS V14.01,2013-07-09 17:29:00,
2013-07-09 10:34:00,84.8,54.1,29.98,East,89,1.0,2.0,35,0.00,,CLR,0.00,VWS V14.01,2013-07-09 17:34:00,
2013-07-09 10:39:00,85.3,53.8,29.98,ESE,113,0.0,2.0,34,0.00,,CLR,0.00,VWS V14.01,2013-07-09 17:39:00,
2013-07-09 10:44:00,85.6,54.0,29.98,NNE,16,1.0,2.0,34,0.00,,CLR,0.00,VWS V14.01,2013-07-09 17:44:00,
2013-07-09 10:49:00,85.4,53.9,29.98,NNE,13,3.0,4.0,34,0.00,,CLR,0.00,VWS V14.01,2013-07-09 17:49:00,
2013-07-09 10:54:00,85.9,54.3,29.98,NNE,24,5.0,5.0,34,0.00,,CLR,0.00,VWS V14.01,2013-07-09 17:54:00,
2013-07-09 10:59:00,85.9,54.3,29.98,SE,142,1.0,6.0,34,0.00,,CLR,0.00,VWS V14.01,2013-07-09 17:59:00,
2013-07-09 11:04:00,86.7,53.3,29.98,SE,143,1.0,3.0,32,0.00,,CLR,0.00,VWS V14.01,2013-07-09 18:04:00,
2013-07-09 11:09:00,87.5,53.2,29.98,SW,235,2.0,3.0,31,0.00,,CLR,0.00,VWS V14.01,2013-07-09 18:09:00,
2013-07-09 11:14:00,88.4,54.0,29.97,NE,34,0.0,3.0,31,0.00,,CLR,0.00,VWS V14.01,2013-07-09 18:14:00,
2013-07-09 11:19:00,88.6,51.4,29.97,NNW,345,0.0,4.0,28,0.00,,CLR,0.00,VWS V14.01,2013-07-09 18:19:00,
2013-07-09 11:24:00,88.4,53.1,29.97,ESE,115,1.0,4.0,30,0.00,,CLR,0.00,VWS V14.01,2013-07-09 18:24:00,
2013-07-09 11:29:00,88.6,50.4,29.97,SE,136,0.0,4.0,27,0.00,,CLR,0.00,VWS V14.01,2013-07-09 18:29:00,
2013-07-09 11:34:00,88.7,48.4,29.97,West,276,1.0,2.0,25,0.00,,CLR,0.00,VWS V14.01,2013-07-09 18:34:00,
2013-07-09 11:39:00,89.3,52.0,29.97,SE,127,0.0,2.0,28,0.00,,CLR,0.00,VWS V14.01,2013-07-09 18:39:00,
2013-07-09 11:44:00,89.9,50.5,29.97,North,351,0.0,4.0,26,0.00,,CLR,0.00,VWS V14.01,2013-07-09 18:44:00,
2013-07-09 11:49:00,90.4,49.8,29.97,SSE,167,2.0,4.0,25,0.00,,CLR,0.00,VWS V14.01,2013-07-09 18:49:00,
2013-07-09 11:54:00,91.2,50.5,29.97,WSW,238,0.0,4.0,25,0.00,,CLR,0.00,VWS V14.01,2013-07-09 18:54:00,
2013-07-09 11:59:00,91.7,49.8,29.97,NE,47,0.0,4.0,24,0.00,,CLR,0.00,VWS V14.01,2013-07-09 18:59:00,
2013-07-09 12:05:00,91.6,49.7,29.97,NW,307,0.0,3.0,24,0.00,,CLR,0.00,VWS V14.01,2013-07-09 19:05:00,
2013-07-09 12:10:00,91.9,48.8,29.97,SE,137,1.0,3.0,23,0.00,,CLR,0.00,VWS V14.01,2013-07-09 19:10:00,
2013-07-09 12:15:00,91.9,51.1,29.97,NE,39,1.0,4.0,25,0.00,,CLR,0.00,VWS V14.01,2013-07-09 19:15:00,
2013-07-09 12:20:00,92.0,50.1,29.97,NNE,32,2.0,4.0,24,0.00,,CLR,0.00,VWS V14.01,2013-07-09 19:20:00,
2013-07-09 12:25:00,92.1,51.3,29.97,SSE,153,1.0,4.0,25,0.00,,CLR,0.00,VWS V14.01,2013-07-09 19:25:00,
2013-07-09 12:30:00,93.6,51.4,29.96,NNE,29,0.0,4.0,24,0.00,,CLR,0.00,VWS V14.01,2013-07-09 19:30:00,
2013-07-09 12:35:00,93.3,50.0,29.96,NE,39,0.0,4.0,23,0.00,,CLR,0.00,VWS V14.01,2013-07-09 19:35:00,
2013-07-09 12:40:00,93.3,51.2,29.96,NE,41,0.0,4.0,24,0.00,,CLR,0.00,VWS V14.01,2013-07-09 19:40:00,
2013-07-09 12:45:00,93.9,48.1,29.96,WNW,294,2.0,4.0,21,0.00,,CLR,0.00,VWS V14.01,2013-07-09 19:45:00,
2013-07-09 12:50:00,93.5,50.2,29.96,North,8,2.0,4.0,23,0.00,,CLR,0.00,VWS V14.01,2013-07-09 19:50:00,
2013-07-09 12:55:00,94.0,51.8,29.96,ESE,109,1.0,5.0,24,0.00,,CLR,0.00,VWS V14.01,2013-07-09 19:55:00,
2013-07-09 13:00:00,94.1,50.7,29.96,SSW,205,2.0,6.0,23,0.00,,CLR,0.00,VWS V14.01,2013-07-09 20:00:00,
2013-07-09 13:05:00,94.0,51.8,29.96,East,93,1.0,3.0,24,0.00,,CLR,0.00,VWS V14.01,2013-07-09 20:05:00,
2013-07-09 13:10:00,94.7,51.2,29.96,SE,139,1.0,4.0,23,0.00,,CLR,0.00,VWS V14.01,2013-07-09 20:10:00,
2013-07-09 13:15:00,95.2,51.6,29.95,SSE,150,2.0,4.0,23,0.00,,CLR,0.00,VWS V14.01,2013-07-09 20:15:00,
2013-07-09 13:20:00,95.8,49.6,29.95,East,100,4.0,4.0,21,0.00,,CLR,0.00,VWS V14.01,2013-07-09 20:20:00,
2013-07-09 13:25:00,95.8,48.3,29.95,East,94,2.0,7.0,20,0.00,,CLR,0.00,VWS V14.01,2013-07-09 20:25:00,
2013-07-09 13:30:00,95.6,48.2,29.95,SSE,162,1.0,7.0,20,0.00,,CLR,0.00,VWS V14.01,2013-07-09 20:30:00,
2013-07-09 13:35:00,95.5,46.7,29.95,NNE,32,2.0,5.0,19,0.00,,CLR,0.00,VWS V14.01,2013-07-09 20:35:00,
2013-07-09 13:40:00,95.7,49.6,29.95,SE,136,1.0,7.0,21,0.00,,CLR,0.00,VWS V14.01,2013-07-09 20:40:00,
2013-07-09 13:46:00,96.1,47.2,29.95,East,89,1.0,7.0,19,0.00,,CLR,0.00,VWS V14.01,2013-07-09 20:46:00,
2013-07-09 13:51:00,97.0,48.0,29.95,SSW,195,3.0,7.0,19,0.00,,CLR,0.00,VWS V14.01,2013-07-09 20:51:00,
2013-07-09 13:56:00,97.0,46.5,29.95,SE,139,0.0,7.0,18,0.00,,CLR,0.00,VWS V14.01,2013-07-09 20:56:00,
2013-07-09 14:01:00,96.8,47.8,29.95,SE,129,3.0,7.0,19,0.00,,CLR,0.00,VWS V14.01,2013-07-09 21:01:00,
2013-07-09 14:06:00,96.9,49.2,29.94,SE,143,0.0,4.0,20,0.00,,CLR,0.00,VWS V14.01,2013-07-09 21:06:00,
2013-07-09 14:11:00,97.6,48.4,29.94,SSE,165,2.0,5.0,19,0.00,,CLR,0.00,VWS V14.01,2013-07-09 21:11:00,
2013-07-09 14:16:00,97.5,49.7,29.94,ENE,71,0.0,5.0,20,0.00,,CLR,0.00,VWS V14.01,2013-07-09 21:16:00,
2013-07-09 14:21:00,97.7,48.5,29.94,South,181,3.0,6.0,19,0.00,,CLR,0.00,VWS V14.01,2013-07-09 21:21:00,
2013-07-09 14:26:00,97.7,47.1,29.94,SE,128,0.0,6.0,18,0.00,,CLR,0.00,VWS V14.01,2013-07-09 21:26:00,
2013-07-09 14:31:00,98.1,47.4,29.94,South,169,1.0,6.0,18,0.00,,CLR,0.00,VWS V14.01,2013-07-09 21:31:00,
2013-07-09 14:36:00,98.5,41.1,29.93,ESE,122,2.0,9.0,14,0.00,,CLR,0.00,VWS V14.01,2013-07-09 21:36:00,
2013-07-09 14:41:00,99.0,39.6,29.93,South,172,2.0,9.0,13,0.00,,CLR,0.00,VWS V14.01,2013-07-09 21:41:00,
2013-07-09 14:46:00,99.3,39.8,29.93,SE,145,4.0,9.0,13,0.00,,CLR,0.00,VWS V14.01,2013-07-09 21:46:00,
2013-07-09 14:51:00,99.1,39.7,29.93,ESE,123,1.0,9.0,13,0.00,,CLR,0.00,VWS V14.01,2013-07-09 21:51:00,
2013-07-09 14:56:00,99.2,39.8,29.93,South,181,1.0,9.0,13,0.00,,CLR,0.00,VWS V14.01,2013-07-09 21:56:00,
2013-07-09 15:01:00,99.4,39.9,29.93,South,174,3.0,3.0,13,0.00,,CLR,0.00,VWS V14.01,2013-07-09 22:01:00,
2013-07-09 15:06:00,99.4,39.9,29.92,SSE,150,2.0,6.0,13,0.00,,CLR,0.00,VWS V14.01,2013-07-09 22:06:00,
2013-07-09 15:11:00,99.8,40.2,29.92,South,174,3.0,8.0,13,0.00,,CLR,0.00,VWS V14.01,2013-07-09 22:11:00,
2013-07-09 15:16:00,99.8,38.2,29.92,East,94,0.0,8.0,12,0.00,,CLR,0.00,VWS V14.01,2013-07-09 22:16:00,
2013-07-09 15:21:00,100.4,40.7,29.92,SW,228,2.0,8.0,13,0.00,,CLR,0.00,VWS V14.01,2013-07-09 22:21:00,
2013-07-09 15:26:00,100.8,39.0,29.92,SSE,150,2.0,8.0,12,0.00,,CLR,0.00,VWS V14.01,2013-07-09 22:26:00,
2013-07-09 15:31:00,100.8,41.0,29.92,SW,219,9.0,9.0,13,0.00,,CLR,0.00,VWS V14.01,2013-07-09 22:31:00,
2013-07-09 15:36:00,100.2,40.5,29.92,SSE,149,5.0,9.0,13,0.00,,CLR,0.00,VWS V14.01,2013-07-09 22:36:00,
2013-07-09 15:41:00,100.1,42.4,29.91,SSW,193,0.0,9.0,14,0.00,,CLR,0.00,VWS V14.01,2013-07-09 22:41:00,
2013-07-09 15:46:00,100.1,40.5,29.91,SSE,163,6.0,9.0,13,0.00,,CLR,0.00,VWS V14.01,2013-07-09 22:46:00,
2013-07-09 15:51:00,100.2,40.5,29.91,WSW,256,4.0,9.0,13,0.00,,CLR,0.00,VWS V14.01,2013-07-09 22:51:00,
2013-07-09 15:56:00,100.3,42.5,29.91,SSE,162,6.0,9.0,14,0.00,,CLR,0.00,VWS V14.01,2013-07-09 22:56:00,
2013-07-09 16:01:00,100.4,40.7,29.90,South,188,3.0,3.0,13,0.00,,CLR,0.00,VWS V14.01,2013-07-09 23:01:00,
2013-07-09 16:06:00,100.6,40.9,29.90,SSE,152,4.0,8.0,13,0.00,,CLR,0.00,VWS V14.01,2013-07-09 23:06:00,
2013-07-09 16:11:00,100.7,40.9,29.90,SW,233,5.0,8.0,13,0.00,,CLR,0.00,VWS V14.01,2013-07-09 23:11:00,
2013-07-09 16:16:00,100.8,39.0,29.90,NE,56,3.0,8.0,12,0.00,,CLR,0.00,VWS V14.01,2013-07-09 23:16:00,
2013-07-09 16:21:00,100.7,38.9,29.90,SSE,150,2.0,9.0,12,0.00,,CLR,0.00,VWS V14.01,2013-07-09 23:21:00,
2013-07-09 16:26:00,100.9,41.1,29.90,SSE,162,5.0,9.0,13,0.00,,CLR,0.00,VWS V14.01,2013-07-09 23:26:00,
2013-07-09 16:31:00,100.8,39.0,29.90,SSW,200,4.0,9.0,12,0.00,,CLR,0.00,VWS V14.01,2013-07-09 23:31:00,
2013-07-09 16:36:00,100.5,36.5,29.89,SSW,193,2.0,10.0,11,0.00,,CLR,0.00,VWS V14.01,2013-07-09 23:36:00,
2013-07-09 16:41:00,100.9,36.8,29.89,South,187,2.0,10.0,11,0.00,,CLR,0.00,VWS V14.01,2013-07-09 23:41:00,
2013-07-09 16:46:00,100.9,39.0,29.89,SW,217,4.0,10.0,12,0.00,,CLR,0.00,VWS V14.01,2013-07-09 23:46:00,
2013-07-09 16:51:00,101.0,41.2,29.89,South,186,4.0,10.0,13,0.00,,CLR,0.00,VWS V14.01,2013-07-09 23:51:00,
2013-07-09 16:56:00,101.1,39.2,29.89,ESE,123,3.0,10.0,12,0.00,,CLR,0.00,VWS V14.01,2013-07-09 23:56:00,
2013-07-09 17:01:00,101.0,39.1,29.89,SW,225,2.0,7.0,12,0.00,,CLR,0.00,VWS V14.01,2013-07-10 00:01:00,
2013-07-09 17:06:00,101.1,41.2,29.88,SSE,153,1.0,9.0,13,0.00,,CLR,0.00,VWS V14.01,2013-07-10 00:06:00,
2013-07-09 17:11:00,101.3,39.3,29.88,South,179,3.0,9.0,12,0.00,,CLR,0.00,VWS V14.01,2013-07-10 00:11:00,
2013-07-09 17:17:00,101.5,37.3,29.88,South,184,3.0,10.0,11,0.00,,CLR,0.00,VWS V14.01,2013-07-10 00:17:00,
2013-07-09 17:22:00,101.8,35.1,29.88,WNW,286,5.0,10.0,10,0.00,,CLR,0.00,VWS V14.01,2013-07-10 00:22:00,
2013-07-09 17:27:00,102.2,32.8,29.88,South,174,1.0,10.0,9,0.00,,CLR,0.00,VWS V14.01,2013-07-10 00:27:00,
2013-07-09 17:32:00,102.4,30.0,29.88,SSW,200,1.0,2.0,8,0.00,,CLR,0.00,VWS V14.01,2013-07-10 00:32:00,
2013-07-09 17:37:00,102.4,30.0,29.87,West,270,1.0,5.0,8,0.00,,CLR,0.00,VWS V14.01,2013-07-10 00:37:00,
2013-07-09 17:42:00,102.8,30.3,29.87,SSE,157,0.0,5.0,8,0.00,,CLR,0.00,VWS V14.01,2013-07-10 00:42:00,
2013-07-09 17:47:00,102.9,33.3,29.87,SSW,193,1.0,6.0,9,0.00,,CLR,0.00,VWS V14.01,2013-07-10 00:47:00,
2013-07-09 17:52:00,102.6,30.1,29.87,SSW,212,2.0,6.0,8,0.00,,CLR,0.00,VWS V14.01,2013-07-10 00:52:00,
2013-07-09 17:57:00,102.6,30.1,29.87,SE,146,0.0,6.0,8,0.00,,CLR,0.00,VWS V14.01,2013-07-10 00:57:00,
2013-07-09 18:02:00,102.5,30.1,29.86,West,278,4.0,5.0,8,0.00,,CLR,0.00,VWS V14.01,2013-07-10 01:02:00,
2013-07-09 18:07:00,101.8,32.5,29.86,NW,323,2.0,7.0,9,0.00,,CLR,0.00,VWS V14.01,2013-07-10 01:07:00,
2013-07-09 18:12:00,101.5,32.2,29.86,WSW,252,0.0,7.0,9,0.00,,CLR,0.00,VWS V14.01,2013-07-10 01:12:00,
2013-07-09 18:17:00,102.0,35.2,29.86,West,263,0.0,7.0,10,0.00,,CLR,0.00,VWS V14.01,2013-07-10 01:17:00,
2013-07-09 18:22:00,102.4,35.5,29.86,WNW,284,0.0,7.0,10,0.00,,CLR,0.00,VWS V14.01,2013-07-10 01:22:00,
2013-07-09 18:27:00,102.4,38.0,29.86,SSW,204,1.0,7.0,11,0.00,,CLR,0.00,VWS V14.01,2013-07-10 01:27:00,
2013-07-09 18:32:00,102.2,35.4,29.86,SSW,211,0.0,1.0,10,0.00,,CLR,0.00,VWS V14.01,2013-07-10 01:32:00,
2013-07-09 18:37:00,102.1,37.7,29.86,WSW,243,1.0,4.0,11,0.00,,CLR,0.00,VWS V14.01,2013-07-10 01:37:00,
2013-07-09 18:42:00,102.0,35.2,29.86,SSW,208,0.0,4.0,10,0.00,,CLR,0.00,VWS V14.01,2013-07-10 01:42:00,
2013-07-09 18:47:00,102.3,37.9,29.85,West,277,0.0,4.0,11,0.00,,CLR,0.00,VWS V14.01,2013-07-10 01:47:00,
2013-07-09 18:52:00,102.7,35.8,29.85,WNW,288,0.0,4.0,10,0.00,,CLR,0.00,VWS V14.01,2013-07-10 01:52:00,
2013-07-09 18:57:00,102.8,38.3,29.86,South,172,2.0,4.0,11,0.00,,CLR,0.00,VWS V14.01,2013-07-10 01:57:00,
2013-07-09 19:02:00,102.2,37.8,29.85,SE,127,0.0,0.0,11,0.00,,CLR,0.00,VWS V14.01,2013-07-10 02:02:00,
2013-07-09 19:07:00,102.0,39.9,29.85,West,280,0.0,2.0,12,0.00,,CLR,0.00,VWS V14.01,2013-07-10 02:07:00,
2013-07-09 19:12:00,101.9,41.9,29.85,SE,139,0.0,2.0,13,0.00,,CLR,0.00,VWS V14.01,2013-07-10 02:12:00,
2013-07-09 19:17:00,101.6,39.6,29.85,WNW,293,0.0,4.0,12,0.00,,CLR,0.00,VWS V14.01,2013-07-10 02:17:00,
2013-07-09 19:22:00,101.5,39.5,29.85,WSW,245,0.0,4.0,12,0.00,,CLR,0.00,VWS V14.01,2013-07-10 02:22:00,
2013-07-09 19:27:00,101.5,41.6,29.85,SW,219,0.0,4.0,13,0.00,,CLR,0.00,VWS V14.01,2013-07-10 02:27:00,
2013-07-09 19:32:00,100.9,43.0,29.85,SSW,195,0.0,1.0,14,0.00,,CLR,0.00,VWS V14.01,2013-07-10 02:32:00,
2013-07-09 19:37:00,100.4,42.6,29.85,SSW,211,0.0,3.0,14,0.00,,CLR,0.00,VWS V14.01,2013-07-10 02:37:00,
2013-07-09 19:42:00,100.2,44.3,29.85,SW,222,1.0,3.0,15,0.00,,CLR,0.00,VWS V14.01,2013-07-10 02:42:00,
2013-07-09 19:47:00,99.6,45.5,29.85,SE,135,0.0,3.0,16,0.00,,CLR,0.00,VWS V14.01,2013-07-10 02:47:00,
2013-07-09 19:52:00,98.9,44.9,29.85,South,187,0.0,3.0,16,0.00,,CLR,0.00,VWS V14.01,2013-07-10 02:52:00,
2013-07-09 19:57:00,98.3,46.0,29.85,NNE,28,0.0,3.0,17,0.00,,CLR,0.00,VWS V14.01,2013-07-10 02:57:00,
2013-07-09 20:02:00,97.4,46.8,29.85,West,262,1.0,1.0,18,0.00,,CLR,0.00,VWS V14.01,2013-07-10 03:02:00,
2013-07-09 20:07:00,96.6,47.6,29.86,SE,132,0.0,1.0,19,0.00,,CLR,0.00,VWS V14.01,2013-07-10 03:07:00,
2013-07-09 20:12:00,95.3,46.6,29.86,WNW,295,0.0,1.0,19,0.00,,CLR,0.00,VWS V14.01,2013-07-10 03:12:00,
2013-07-09 20:17:00,94.3,48.4,29.86,WSW,245,0.0,2.0,21,0.00,,CLR,0.00,VWS V14.01,2013-07-10 03:17:00,
2013-07-09 20:22:00,93.2,48.7,29.86,WSW,245,0.0,2.0,22,0.00,,CLR,0.00,VWS V14.01,2013-07-10 03:22:00,
2013-07-09 20:27:00,92.2,47.9,29.86,SW,235,0.0,2.0,22,0.00,,CLR,0.00,VWS V14.01,2013-07-10 03:27:00,
2013-07-09 20:32:00,91.3,48.3,29.85,SW,221,0.0,1.0,23,0.00,,CLR,0.00,VWS V14.01,2013-07-10 03:32:00,
2013-07-09 20:37:00,90.7,47.8,29.86,SSW,198,0.0,1.0,23,0.00,,CLR,0.00,VWS V14.01,2013-07-10 03:37:00,
2013-07-09 20:42:00,90.1,47.3,29.86,SSE,167,0.0,1.0,23,0.00,,CLR,0.00,VWS V14.01,2013-07-10 03:42:00,
2013-07-09 20:47:00,89.5,48.0,29.86,NNE,33,2.0,2.0,24,0.00,,CLR,0.00,VWS V14.01,2013-07-10 03:47:00,
2013-07-09 20:52:00,88.9,47.5,29.86,NNE,21,0.0,5.0,24,0.00,,CLR,0.00,VWS V14.01,2013-07-10 03:52:00,
2013-07-09 20:57:00,88.9,46.3,29.86,West,276,0.0,5.0,23,0.00,,CLR,0.00,VWS V14.01,2013-07-10 03:57:00,
2013-07-09 21:01:00,89.3,44.3,29.86,West,281,1.0,5.0,21,0.00,,CLR,0.00,VWS V14.01,2013-07-10 04:01:00,
2013-07-09 21:06:00,89.6,45.8,29.86,NNW,335,0.0,1.0,22,0.00,,CLR,0.00,VWS V14.01,2013-07-10 04:06:00,
2013-07-09 21:11:00,88.9,45.2,29.86,NNW,335,0.0,1.0,22,0.00,,CLR,0.00,VWS V14.01,2013-07-10 04:11:00,
2013-07-09 21:16:00,88.0,46.7,29.86,NNW,335,0.0,1.0,24,0.00,,CLR,0.00,VWS V14.01,2013-07-10 04:16:00,
2013-07-09 21:21:00,87.6,46.4,29.86,SSE,148,1.0,1.0,24,0.00,,CLR,0.00,VWS V14.01,2013-07-10 04:21:00,
2013-07-09 21:26:00,87.4,45.1,29.87,SSE,150,0.0,1.0,23,0.00,,CLR,0.00,VWS V14.01,2013-07-10 04:26:00,
2013-07-09 21:31:00,86.9,45.8,29.87,SSE,150,0.0,0.0,24,0.00,,CLR,0.00,VWS V14.01,2013-07-10 04:31:00,
2013-07-09 21:36:00,86.5,43.2,29.87,SSE,150,0.0,0.0,22,0.00,,CLR,0.00,VWS V14.01,2013-07-10 04:36:00,
2013-07-09 21:41:00,86.1,47.2,29.87,NNE,22,0.0,2.0,26,0.00,,CLR,0.00,VWS V14.01,2013-07-10 04:41:00,
2013-07-09 21:46:00,85.4,46.7,29.87,NNE,22,0.0,2.0,26,0.00,,CLR,0.00,VWS V14.01,2013-07-10 04:46:00,
2013-07-09 21:51:00,84.9,45.2,29.87,NNE,21,0.0,2.0,25,0.00,,CLR,0.00,VWS V14.01,2013-07-10 04:51:00,
2013-07-09 21:56:00,84.6,47.0,29.87,NNE,21,0.0,2.0,27,0.00,,CLR,0.00,VWS V14.01,2013-07-10 04:56:00,
2013-07-09 22:01:00,84.4,46.8,29.87,NNE,20,0.0,0.0,27,0.00,,CLR,0.00,VWS V14.01,2013-07-10 05:01:00,
2013-07-09 22:06:00,84.2,46.6,29.87,WNW,291,0.0,0.0,27,0.00,,CLR,0.00,VWS V14.01,2013-07-10 05:06:00,
2013-07-09 22:11:00,83.7,47.2,29.87,WNW,291,0.0,0.0,28,0.00,,CLR,0.00,VWS V14.01,2013-07-10 05:11:00,
2013-07-09 22:16:00,83.0,46.6,29.87,WNW,290,0.0,0.0,28,0.00,,CLR,0.00,VWS V14.01,2013-07-10 05:16:00,
2013-07-09 22:21:00,82.3,46.9,29.88,WNW,291,0.0,0.0,29,0.00,,CLR,0.00,VWS V14.01,2013-07-10 05:21:00,
2013-07-09 22:26:00,82.0,46.6,29.88,WNW,290,0.0,0.0,29,0.00,,CLR,0.00,VWS V14.01,2013-07-10 05:26:00,
2013-07-09 22:31:00,82.0,46.6,29.88,WNW,290,0.0,0.0,29,0.00,,CLR,0.00,VWS V14.01,2013-07-10 05:31:00,
2013-07-09 22:36:00,82.2,46.8,29.87,WNW,289,0.0,0.0,29,0.00,,CLR,0.00,VWS V14.01,2013-07-10 05:36:00,
2013-07-09 22:41:00,81.8,47.4,29.87,WNW,289,0.0,0.0,30,0.00,,CLR,0.00,VWS V14.01,2013-07-10 05:41:00,
2013-07-09 22:46:00,81.5,46.2,29.87,WNW,290,0.0,0.0,29,0.00,,CLR,0.00,VWS V14.01,2013-07-10 05:46:00,
2013-07-09 22:51:00,81.2,46.8,29.87,WNW,290,0.0,0.0,30,0.00,,CLR,0.00,VWS V14.01,2013-07-10 05:51:00,
2013-07-09 22:56:00,80.7,47.3,29.88,WNW,290,0.0,0.0,31,0.00,,CLR,0.00,VWS V14.01,2013-07-10 05:56:00,
2013-07-09 23:01:00,80.1,46.8,29.88,WNW,284,0.0,0.0,31,0.00,,CLR,0.00,VWS V14.01,2013-07-10 06:01:00,
2013-07-09 23:06:00,80.1,45.9,29.88,SSE,163,0.0,1.0,30,0.00,,CLR,0.00,VWS V14.01,2013-07-10 06:06:00,
2013-07-09 23:11:00,80.2,47.7,29.88,South,191,0.0,1.0,32,0.00,,CLR,0.00,VWS V14.01,2013-07-10 06:11:00,
2013-07-09 23:16:00,80.1,49.2,29.88,SSE,164,0.0,1.0,34,0.00,,CLR,0.00,VWS V14.01,2013-07-10 06:16:00,
2013-07-09 23:21:00,79.7,50.4,29.88,SSW,204,0.0,1.0,36,0.00,,CLR,0.00,VWS V14.01,2013-07-10 06:21:00,
2013-07-09 23:26:00,79.3,50.8,29.88,SE,131,1.0,1.0,37,0.00,,CLR,0.00,VWS V14.01,2013-07-10 06:26:00,
2013-07-09 23:31:00,78.8,51.1,29.88,SSE,153,0.0,0.0,38,0.00,,CLR,0.00,VWS V14.01,2013-07-10 06:31:00,
2013-07-09 23:36:00,78.3,51.3,29.88,SSE,148,0.0,1.0,39,0.00,,CLR,0.00,VWS V14.01,2013-07-10 06:36:00,
2013-07-09 23:41:00,78.0,51.1,29.88,SSW,205,0.0,1.0,39,0.00,,CLR,0.00,VWS V14.01,2013-07-10 06:41:00,
2013-07-09 23:46:00,77.6,51.4,29.88,SE,143,0.0,1.0,40,0.00,,CLR,0.00,VWS V14.01,2013-07-10 06:46:00,
2013-07-09 23:51:00,77.2,51.0,29.88,SSE,157,0.0,2.0,40,0.00,,CLR,0.00,VWS V14.01,2013-07-10 06:51:00,
2013-07-09 23:56:00,76.8,51.3,29.88,SSE,161,0.0,2.0,41,0.00,,CLR,0.00,VWS V14.01,2013-07-10 06:56:00,